{"data":{"norad_id":67593,"intl_designator":"2026-018E","name":"STARLINK-36634","alt_names":[],"object_type":"PAYLOAD","status":"ACTIVE","operator":null,"country":"US","launch_date":"2026-01-29","launch_site_code":"AFWTR","launch_vehicle":null,"mission":null,"orbit_class":"UNKNOWN","rcs_meters":null,"size_class":null,"mass_kg":null,"dimensions":null,"purposes":["comms"],"wikipedia_slug":null,"has_3d_model":false,"image_url":null,"decayed_at":null,"tle_current":{"epoch":"2026-05-25T03:26:29.296032Z","epoch_age_seconds":63002,"freshness":"FRESH","line1":"1 67593U 26018E   26145.14339463  .00008213  00000+0  25649-3 0  9990","line2":"2 67593  97.2860 210.3140 0001175 355.7700   4.3533 15.33441488 19050","mean_motion":15.33441488,"eccentricity":0.0001175,"inclination_deg":97.286,"raan_deg":210.314,"arg_perigee_deg":355.77,"mean_anomaly_deg":4.3533,"bstar":0.00025649,"rev_number":1905,"period_min":93.906419727702,"perigee_km":464.74949009088,"apogee_km":466.35775738746,"semimajor_km":6843.6906237392,"source":"CELESTRAK","updated_at":"2026-05-25T13:38:21.619859Z"}}}